Location: Fort Worth, Tx
(32.7431°N, 97.3695°W)
Time: 14:42:49
(UTC-04:00)

Transit 2A - Pass Details

Date: 23 February 2024
Orbit: 596 x 956 km, 66.7° (Epoch: 20 April)

Event Time Altitude Azimuth Distance (km) Brightness Sun altitude
Exits shadow 06:15:55 - 347° (NNW) 2,673 8.7 -23.6°
Reaches altitude 10° 06:17:18 10° 353° (N) 2,185 8.3 -23.3°
Maximum altitude 06:21:55 37° 60° (ENE) 1,166 7.4 -22.3°
Drops below altitude 10° 06:26:58 10° 127° (SE) 2,399 9.2 -21.3°
Sets 06:29:42 0° 136° (SE) 3,390 10.0 -20.7°
